Wind_Speed
42 47 49 47 48 47 47 50 51 50 51 51 52 54 53 49 46 43 41 40 40 39 36 34 32 31 30 29 29 30 31 32 34 37 35 33 36 38 36 34 32 31 29 28 27 27 27 28 27 26 26 28 28 26 25 23 18 15 14 15 15 15 15 13 11 9 7 6 5 4 6 8 9 9 8 7 7 6 7 7 6 7 6 4 4 5 7 7
41 46 50 49 50 49 48 50 51 49 49 50 50 51 53 53 52 47 45 42 41 41 39 36 35 33 31 30 29 29 31 32 34 36 33 33 37 37 36 34 32 32 31 28 27 27 28 29 28 26 25 26 27 25 24 24 20 16 15 16 16 15 14 13 10 8 7 6 5 6 8 9 10 10 10 9 8 7 7 7 8 8 6 5 5 6 7 7
45 45 46 47 50 50 48 49 52 50 48 50 49 48 49 51 53 51 48 46 43 42 41 38 37 35 32 31 30 29 30 32 35 36 34 34 35 35 33 31 33 33 31 29 29 29 29 30 30 28 26 26 26 25 25 25 23 19 16 16 16 15 15 14 12 9 9 8 8 8 9 9 11 12 11 10 9 9 8 7 7 7 5 4 5 6 7 8
51 45 41 44 50 50 50 49 51 52 49 49 49 48 46 46 50 51 48 46 44 44 43 40 38 36 34 32 30 30 30 33 37 37 35 35 35 34 32 31 34 34 31 31 30 30 29 30 30 27 26 25 25 26 26 26 26 24 19 16 17 17 17 17 15 12 11 10 10 11 11 10 11 13 12 11 11 10 7 7 7 6 7 6 6 7 8 9
56 49 41 43 50 50 51 49 50 54 51 49 48 48 46 44 47 48 46 45 44 44 45 42 39 38 36 33 31 30 31 34 38 37 35 37 36 34 33 33 34 32 31 32 31 30 28 27 26 24 24 24 24 26 29 28 27 27 22 18 17 18 19 19 18 16 13 12 13 13 11 9 11 12 11 12 11 7 6 8 9 9 10 10 9 9 9 9
58 54 46 43 49 50 51 50 50 53 53 49 46 46 46 44 46 46 44 44 44 44 45 44 41 39 37 34 31 31 33 33 33 36 37 36 36 35 34 35 33 30 31 33 32 30 28 26 23 22 22 22 21 23 29 30 27 28 26 20 18 20 21 20 19 19 16 14 15 14 12 10 11 10 9 11 9 7 9 11 12 13 12 12 12 12 11 11
57 58 52 44 48 50 50 51 51 50 52 51 46 45 45 44 45 46 43 43 44 43 45 46 43 40 38 35 32 32 35 33 28 32 37 36 36 35 35 36 34 31 32 33 32 30 28 25 22 21 21 20 19 19 25 30 30 29 28 24 20 21 22 21 21 20 17 15 16 17 15 13 12 10 10 9 7 9 12 12 13 13 13 13 12 11 12 12
55 60 58 48 45 47 48 52 51 49 51 52 47 46 46 44 44 45 42 41 42 43 45 46 44 42 39 37 35 35 36 34 30 29 33 37 37 35 37 37 35 33 33 33 31 29 27 24 21 21 21 19 18 17 21 27 33 32 30 28 23 22 22 22 21 19 18 16 16 18 17 15 12 12 12 7 6 11 13 12 12 12 12 12 11 11 13 13
50 58 60 54 46 44 47 51 50 49 51 48 47 47 47 45 43 44 42 40 40 42 45 46 45 43 40 37 35 38 37 33 32 29 30 36 38 37 38 37 35 34 32 31 31 30 27 23 22 21 20 19 18 17 19 24 34 35 33 30 26 23 23 22 21 19 18 17 17 18 17 16 14 14 12 7 8 12 13 13 13 13 13 12 12 12 13 14
45 54 60 58 51 44 43 50 49 50 50 44 45 47 46 45 43 42 42 41 39 41 45 46 46 43 42 39 37 39 35 30 33 34 30 33 39 39 37 35 34 34 32 31 31 30 26 22 22 23 21 21 19 18 17 22 33 36 34 32 28 25 23 22 21 20 19 18 18 18 17 16 15 16 13 9 11 12 13 14 14 14 14 13 13 13 14 15
37 47 56 59 57 48 42 49 50 50 50 43 43 47 46 45 43 40 41 41 40 41 45 47 46 45 42 41 40 38 32 31 34 36 32 30 35 38 36 35 33 33 33 32 30 27 24 22 23 23 22 21 21 19 18 21 30 35 35 33 30 26 24 24 22 20 18 18 18 17 18 18 18 18 13 10 11 12 12 14 15 16 15 15 15 15 16 16
30 39 50 58 60 55 45 48 52 51 50 46 44 47 47 46 43 40 40 40 39 40 44 46 46 45 42 40 40 35 30 32 34 36 35 29 29 33 34 34 33 33 33 31 28 25 23 23 23 22 21 20 19 18 18 19 26 35 35 33 31 28 26 25 24 22 19 19 19 17 19 22 22 19 12 10 13 13 13 15 16 17 17 17 17 17 17 17
27 33 44 55 60 61 50 48 55 51 46 48 47 47 47 46 43 41 39 39 39 40 44 45 45 43 41 41 38 34 31 32 34 35 34 29 26 29 33 33 32 31 30 27 25 24 23 23 22 21 20 20 18 17 17 16 21 32 35 33 32 30 28 27 26 25 22 21 21 19 21 24 22 16 12 12 14 14 14 15 15 17 18 19 20 20 19 19
26 29 38 50 57 62 56 50 55 46 36 44 51 49 48 46 45 43 39 39 39 40 44 44 44 42 39 40 37 33 33 32 34 36 34 30 26 28 31 32 31 29 27 25 25 25 25 25 23 21 20 20 19 18 18 16 17 26 34 34 32 31 29 28 27 27 24 23 23 21 23 25 20 15 14 15 15 15 16 15 16 16 18 21 21 21 21 21
26 27 32 41 50 59 60 53 53 43 35 40 48 49 49 48 46 45 42 40 40 41 44 44 42 41 38 37 36 34 35 35 35 36 34 30 26 26 30 31 31 29 27 26 25 25 25 26 25 23 22 20 19 19 19 19 18 23 30 33 32 32 30 26 27 29 26 24 24 23 23 25 21 16 17 18 17 17 16 16 17 17 18 20 22 22 22 21
26 26 28 34 42 53 61 59 51 45 43 39 38 43 47 51 47 46 45 41 42 43 45 46 42 41 38 37 38 37 38 37 37 36 33 29 26 25 27 30 32 30 28 26 25 26 26 26 26 24 23 21 20 19 19 21 21 23 29 30 27 28 29 26 26 30 28 24 25 24 24 25 22 18 18 18 18 18 17 18 18 18 19 19 21 22 22 22
26 25 27 31 37 48 59 63 54 48 48 40 36 40 42 51 51 47 47 43 43 45 45 46 44 40 37 37 41 42 41 39 38 38 32 28 27 25 25 29 32 31 29 27 26 27 27 28 28 26 25 24 21 21 20 23 24 25 30 30 24 22 25 25 25 29 30 27 25 25 27 27 23 19 19 18 19 19 18 17 18 18 19 20 21 21 22 23
27 26 27 28 33 43 54 63 60 53 49 41 40 41 38 47 54 49 49 48 46 46 45 45 44 41 39 42 46 44 42 40 39 39 33 29 28 25 23 24 27 30 31 30 29 29 29 29 29 27 27 26 24 24 24 24 26 26 28 28 23 20 23 25 24 26 31 30 26 25 28 30 26 21 19 18 19 20 18 17 17 18 19 20 22 22 22 23
28 27 28 27 29 37 47 59 64 58 50 39 38 41 37 42 53 52 53 55 54 52 51 52 51 50 50 50 48 43 40 39 39 41 37 33 31 28 25 23 23 28 32 33 32 31 31 29 30 31 31 31 28 27 27 27 26 25 27 27 23 21 23 24 24 24 27 30 29 28 29 31 29 24 20 19 19 20 19 19 18 18 20 21 21 22 22 23
29 28 28 28 28 33 41 53 63 63 55 41 36 40 35 39 53 57 57 58 59 58 57 58 58 57 56 50 47 45 42 41 42 44 42 37 35 32 29 26 24 25 29 33 33 32 32 31 34 36 35 33 30 27 27 28 26 24 27 28 24 23 24 21 22 25 26 28 29 29 29 31 31 27 25 23 22 21 20 20 20 19 19 20 20 21 21 22
30 29 29 29 28 31 37 46 58 62 59 48 41 41 36 47 63 62 60 59 55 57 56 56 57 56 55 49 47 48 46 46 44 44 45 41 38 35 31 30 28 27 26 28 30 31 32 34 36 36 34 32 30 28 27 27 27 25 27 28 24 25 26 20 18 23 26 28 29 27 29 33 32 29 28 27 27 25 21 20 21 21 21 20 20 20 20 20
29 30 30 29 28 30 34 41 50 58 59 51 48 47 39 49 68 64 61 63 58 58 57 54 56 56 54 47 44 45 45 47 45 43 45 43 42 39 36 34 30 28 27 26 29 31 33 36 36 34 33 31 29 29 28 27 27 26 27 29 26 23 25 22 17 18 23 27 28 28 29 33 34 32 32 31 30 29 26 24 23 22 23 23 23 22 21 21
29 31 31 30 29 29 32 36 42 50 55 52 51 52 37 38 60 63 58 62 61 60 58 56 57 57 55 49 43 44 45 46 47 46 45 44 45 44 41 38 33 30 29 29 32 33 34 34 33 33 33 32 31 31 30 29 29 30 30 31 29 23 19 18 15 14 18 22 25 28 31 34 35 34 35 35 33 31 30 30 29 28 27 25 24 24 23 22
29 32 32 32 30 29 32 34 37 44 52 55 53 51 39 33 51 58 54 58 61 62 60 56 57 57 55 50 44 44 45 46 48 48 47 46 46 45 44 41 37 33 31 30 30 32 32 28 28 33 34 33 33 33 33 31 31 32 32 33 31 24 16 13 11 10 14 17 21 23 26 35 40 38 37 36 34 34 32 33 33 32 31 28 28 28 25 23
29 32 33 34 31 31 32 32 36 41 48 58 56 50 43 35 41 48 52 57 56 59 62 56 55 56 54 50 43 42 44 45 48 48 47 48 46 46 44 41 39 37 34 32 29 29 31 27 26 31 35 36 34 35 35 33 32 32 32 33 31 24 16 13 11 9 11 14 17 16 15 25 38 41 39 37 36 35 33 34 36 34 33 32 31 29 27 26
29 32 35 35 34 34 35 35 37 38 42 55 58 50 47 38 35 40 46 50 48 56 65 60 54 54 55 53 45 40 41 44 47 48 47 46 46 46 44 41 39 38 36 32 28 28 30 30 27 26 29 33 34 34 34 32 31 31 32 32 30 25 17 11 10 10 10 11 12 14 14 17 28 38 38 36 38 39 37 36 36 35 34 34 32 30 28 28
29 33 35 37 38 37 38 39 37 39 42 51 56 51 49 41 35 39 35 27 32 53 66 61 55 55 56 56 49 42 42 45 46 47 48 47 45 44 44 44 40 37 36 32 28 28 30 32 31 26 25 28 32 34 33 31 31 30 30 29 28 25 18 10 10 12 11 13 13 16 20 20 27 37 34 29 32 36 39 39 37 37 35 34 33 31 29 28
28 33 36 38 40 39 40 40 38 43 45 48 53 49 48 42 33 34 26 8 18 51 65 59 56 56 55 55 52 47 45 47 48 47 47 46 46 44 42 44 43 38 35 34 32 28 27 30 30 29 27 28 32 33 31 31 30 29 27 26 27 25 19 11 11 15 13 15 18 21 20 16 23 36 34 30 33 33 34 35 34 35 35 33 32 31 29 28
26 32 37 38 42 42 42 42 42 44 42 43 47 44 47 45 34 32 23 4 21 51 61 59 56 53 53 53 54 50 45 44 48 49 47 44 46 45 42 41 41 37 33 32 31 24 21 23 22 26 31 31 29 27 28 30 29 27 22 21 26 24 18 11 10 15 12 13 23 27 21 14 18 32 34 31 34 35 33 32 29 29 32 33 32 31 31 30
25 31 36 39 44 46 46 46 44 44 40 40 42 42 43 43 39 32 15 7 27 46 54 58 55 53 54 54 54 53 45 41 46 50 47 44 45 44 41 38 35 33 30 27 26 23 20 18 18 23 27 24 19 20 25 27 27 26 20 20 24 20 14 12 12 12 8 13 24 25 23 17 13 23 32 33 35 35 33 32 27 23 25 28 29 29 31 32
27 31 36 41 46 48 50 48 45 43 40 40 42 42 40 41 43 26 6 13 31 42 53 59 55 54 56 56 57 54 47 41 44 49 49 47 46 45 41 37 34 30 29 30 28 27 24 20 22 25 23 17 13 17 22 25 28 26 22 23 20 12 10 11 12 11 7 8 12 16 22 21 15 18 21 23 26 27 30 34 32 27 23 23 24 26 28 30
31 32 36 43 47 51 54 49 46 43 40 44 45 44 44 41 34 18 7 18 28 39 57 63 60 59 58 57 58 56 50 43 43 48 52 51 50 51 48 46 45 37 31 36 34 31 28 23 22 22 22 19 16 19 24 26 29 27 25 24 15 5 5 8 6 6 8 7 4 7 14 19 29 33 25 20 17 13 15 19 22 26 27 26 25 26 26 27
36 35 38 44 48 54 56 50 48 44 44 49 47 48 51 34 19 22 23 21 25 41 59 66 68 66 61 58 56 56 50 44 43 45 50 53 51 52 49 47 50 43 36 41 38 31 26 22 23 23 22 23 22 25 32 34 34 33 32 30 20 8 4 6 4 2 7 9 8 9 9 16 30 34 31 31 27 19 18 17 16 18 21 24 27 27 27 27
39 38 40 46 50 55 58 54 50 48 49 51 47 51 49 24 14 33 36 25 30 46 56 64 67 61 58 56 53 56 51 42 44 46 48 53 50 49 49 46 49 46 40 41 41 37 27 18 26 31 26 25 27 27 31 36 37 37 36 34 29 20 10 6 5 4 6 6 9 11 8 11 17 15 15 18 19 20 22 23 24 23 20 21 25 28 28 27
41 41 43 48 53 58 61 57 53 52 55 54 50 52 47 26 18 35 39 32 38 47 49 57 63 56 52 54 52 55 53 44 44 47 51 55 53 52 54 52 52 49 40 36 37 38 30 17 20 31 29 23 26 28 28 31 32 33 34 32 31 28 18 8 5 8 8 5 8 15 16 17 15 10 8 7 10 15 16 17 21 23 24 24 24 25 27 27
43 44 47 51 58 60 62 61 56 55 59 59 52 49 50 42 33 37 41 40 45 52 50 51 58 54 45 47 49 49 50 47 45 47 49 51 53 55 57 54 54 53 45 39 35 33 29 17 12 22 28 22 21 28 30 27 27 30 34 34 31 27 22 14 8 8 7 5 9 16 23 27 23 19 16 13 12 12 11 14 15 17 23 26 26 26 26 27
45 48 51 56 60 61 63 65 60 56 60 62 55 46 49 52 43 38 45 46 47 57 59 52 53 55 47 45 49 49 46 46 46 47 48 48 49 54 57 55 55 56 51 43 38 35 31 21 12 18 27 27 24 29 31 29 28 31 36 37 30 23 22 20 9 3 4 5 7 14 21 24 21 19 17 15 18 18 14 13 13 15 18 21 24 26 27 29
46 50 55 59 60 61 66 67 64 62 60 61 58 50 50 54 46 38 44 49 48 56 60 51 49 57 58 53 54 55 51 48 49 48 48 48 46 52 61 59 56 57 54 45 37 34 32 21 13 19 27 28 29 31 34 34 32 32 32 33 30 20 19 21 12 3 5 3 5 9 15 22 26 25 17 10 12 17 18 17 17 19 19 19 19 19 22 25
47 52 59 61 59 61 69 70 67 66 62 61 60 53 51 55 48 40 44 49 50 55 58 51 48 54 60 61 60 59 53 50 53 51 48 49 45 49 61 62 57 58 55 49 39 32 32 21 13 19 26 28 31 33 38 40 37 34 28 27 32 26 18 20 17 9 5 3 4 5 7 20 33 35 30 21 12 12 15 15 15 17 20 22 21 19 20 22
48 53 60 61 59 63 72 72 69 68 65 63 62 55 50 53 50 43 44 49 50 54 56 54 53 53 56 59 58 58 53 48 54 53 47 50 45 43 55 60 58 58 54 50 42 33 32 26 19 21 25 29 33 36 41 42 40 40 35 30 33 32 23 17 19 19 12 4 2 1 5 21 29 25 27 28 22 19 19 17 17 17 17 18 20 22 23 22
48 53 60 60 61 68 74 74 72 71 67 62 61 59 53 51 52 47 46 49 50 53 56 56 57 56 57 57 55 56 53 47 53 53 45 49 48 42 51 60 60 58 53 49 44 36 31 27 22 25 28 31 33 36 38 38 39 41 41 38 35 34 28 16 11 19 19 10 6 2 7 27 30 18 18 22 20 20 19 17 17 16 17 19 19 21 22 22
51 57 61 60 63 72 77 76 74 71 70 64 59 60 56 50 51 51 51 51 52 53 54 54 56 55 56 58 58 59 57 52 54 56 50 52 55 48 49 58 62 58 54 52 48 39 31 26 21 22 27 28 27 30 34 36 38 38 39 42 37 32 32 23 10 11 13 15 17 8 10 32 37 24 18 15 12 15 16 16 15 13 15 18 18 20 20 18
58 61 61 59 67 77 78 77 76 72 70 67 59 56 59 56 52 53 53 54 54 53 52 50 51 52 52 56 58 57 56 52 53 58 55 51 55 51 45 52 60 56 52 52 50 42 33 27 23 19 21 25 26 28 32 35 38 39 40 43 39 34 34 30 21 15 11 16 19 8 10 29 34 27 22 17 16 20 20 18 15 13 13 13 13 16 15 13
62 64 61 60 68 80 83 81 80 73 66 66 60 53 57 59 57 56 55 53 54 53 50 49 51 53 54 56 60 60 58 52 49 55 56 50 51 51 43 46 55 57 54 51 51 48 34 26 26 18 10 12 16 17 25 36 40 41 41 41 41 39 35 32 29 21 16 22 21 11 16 30 29 25 24 21 21 25 24 21 18 16 15 15 15 14 14 13
62 63 61 63 68 80 88 86 83 75 65 64 60 52 52 54 54 60 60 55 52 51 50 50 51 52 54 56 59 61 61 56 51 52 54 50 50 50 44 41 47 57 57 50 49 48 36 29 33 26 14 11 14 17 30 43 44 41 42 42 44 44 41 38 33 24 24 33 31 27 33 40 35 27 22 17 17 17 17 18 19 18 18 18 17 15 16 16
67 63 61 65 69 78 86 86 82 77 68 64 61 54 51 50 48 53 58 55 50 49 49 49 49 48 50 53 54 55 58 57 51 50 52 51 48 48 48 42 42 53 57 49 46 45 36 32 37 38 34 34 35 36 39 43 44 44 46 47 46 45 46 43 35 34 39 35 33 44 51 44 34 23 16 15 15 14 15 17 20 22 21 20 18 17 19 18
72 66 67 70 69 75 85 83 77 74 68 63 64 61 54 52 49 48 51 52 50 50 48 46 48 48 48 53 53 53 57 56 50 49 51 52 48 45 46 42 38 49 57 50 44 44 38 35 39 43 44 44 41 37 33 32 39 45 47 48 47 45 45 44 42 49 48 29 28 47 51 45 42 34 25 24 21 18 20 23 27 29 25 22 21 20 20 20
70 66 73 75 70 74 84 81 72 71 66 59 63 67 63 58 56 52 51 52 50 50 48 43 45 49 51 54 56 54 55 53 49 49 50 52 50 43 45 45 38 43 55 52 47 46 44 43 45 46 45 44 39 35 32 29 30 36 42 45 47 46 46 49 51 57 52 39 41 49 45 43 47 42 38 35 30 28 29 29 31 32 29 26 25 24 24 23
68 67 72 75 74 76 83 80 70 68 65 55 54 64 68 65 61 57 56 55 51 50 50 47 46 50 52 53 55 56 55 53 52 54 55 55 54 49 49 50 44 42 50 54 51 48 46 45 46 45 43 43 40 36 33 28 24 28 35 39 43 45 47 50 54 55 54 52 56 54 47 47 44 38 38 37 33 34 35 33 33 32 31 30 28 27 28 28
68 71 73 73 73 78 85 81 70 67 66 58 49 54 63 66 63 59 58 59 58 56 56 54 51 53 55 55 57 58 58 59 59 63 65 61 59 57 54 54 53 48 47 51 52 49 45 40 40 42 38 36 38 35 29 26 23 23 27 30 35 41 46 51 53 52 52 56 58 53 52 55 51 44 43 42 40 39 37 37 36 33 32 31 29 29 31 31
69 72 74 73 69 74 84 81 72 69 68 62 53 51 57 62 63 62 59 60 62 61 59 58 55 55 56 57 60 60 59 60 60 61 63 62 60 60 58 56 56 53 49 48 48 50 47 36 33 36 32 30 34 31 25 23 20 19 23 29 35 40 44 48 49 49 52 55 55 53 57 62 54 45 44 47 47 46 45 45 43 40 38 36 35 36 35 35
72 70 74 77 70 71 80 78 70 69 69 68 61 54 56 60 62 62 58 56 60 59 56 57 58 57 57 58 61 62 59 58 58 56 56 57 55 55 54 52 51 51 51 49 47 49 50 41 33 31 29 29 30 28 26 21 14 18 32 40 43 44 40 39 42 45 47 50 51 53 55 52 44 39 42 44 44 46 47 46 43 42 40 37 37 36 35 35
Wind_Direction
199 194 191 194 198 198 199 198 198 203 204 204 207 208 210 211 210 208 205 205 208 209 207 205 205 207 207 208 211 212 214 216 217 218 218 217 211 205 206 211 214 215 216 219 223 227 230 234 235 234 230 225 228 227 220 217 212 214 221 229 231 227 222 208 207 227 237 230 224 258 274 265 255 248 240 227 213 201 196 194 192 196 191 185 193 182 177 181
204 196 192 192 197 198 198 197 197 201 204 205 208 210 213 215 214 213 211 209 209 210 208 206 206 207 207 208 211 213 216 218 219 218 214 214 212 207 208 210 214 216 215 217 220 223 228 234 237 234 233 229 227 226 223 219 217 217 220 227 229 227 220 206 208 220 217 218 234 260 269 263 257 253 244 232 225 215 208 202 192 195 193 175 183 190 181 180
210 202 195 190 194 197 196 197 197 199 203 205 208 210 211 214 215 215 215 214 211 210 209 207 206 207 208 209 212 214 217 220 220 217 210 210 212 211 211 212 217 220 216 215 218 221 224 232 237 236 235 234 229 226 225 223 222 222 220 223 225 224 218 209 210 215 213 222 240 252 255 255 250 246 237 229 228 222 214 212 205 200 199 190 185 191 188 184
217 209 201 189 191 195 194 196 197 198 203 205 207 209 210 213 213 212 214 215 212 208 209 208 207 207 208 210 213 217 220 222 221 216 211 209 210 212 212 214 220 222 218 216 219 222 223 229 236 238 237 236 232 228 226 225 225 224 222 220 223 223 215 211 215 218 219 228 239 245 244 243 242 241 233 223 220 213 209 214 214 212 204 198 189 193 195 192
223 215 207 191 190 193 193 195 196 199 202 204 206 208 211 213 209 210 211 212 211 208 207 207 207 207 209 210 214 219 220 220 220 215 213 212 211 213 213 217 221 222 221 219 220 224 226 228 234 235 234 234 233 229 226 223 223 223 221 221 225 225 214 211 218 221 224 232 236 237 237 235 237 241 235 227 221 203 205 209 207 214 206 190 184 191 197 197
228 220 212 196 188 192 193 193 196 199 201 202 205 207 210 213 209 208 210 210 210 207 206 206 207 207 208 210 213 220 220 218 218 216 216 216 215 216 216 221 224 223 222 220 221 225 228 230 231 231 231 233 231 230 228 223 222 222 221 222 228 226 214 210 217 220 224 232 234 233 234 233 234 242 243 236 222 199 210 211 205 209 206 194 185 185 192 197
232 224 217 203 190 193 193 192 196 199 200 201 203 206 208 210 209 208 209 209 209 206 206 205 206 207 208 209 210 218 222 220 217 215 218 217 217 219 219 224 226 226 225 222 222 225 229 230 230 232 230 231 233 236 238 229 222 221 221 222 228 226 217 214 217 219 224 229 231 228 228 230 233 240 245 238 219 212 218 217 215 211 207 202 191 186 191 196
235 229 222 211 197 193 192 192 194 196 199 201 203 205 207 209 209 209 208 208 207 206 205 204 205 207 207 208 209 215 219 218 215 216 217 217 217 218 220 225 227 228 227 223 224 227 229 227 224 228 227 232 242 247 250 236 224 221 222 222 225 225 221 219 217 219 224 226 225 223 222 224 229 239 240 229 217 224 225 223 223 219 215 209 197 190 193 198
235 233 226 216 206 196 191 192 195 194 196 202 207 206 206 210 210 208 207 206 206 205 204 203 205 206 207 208 211 217 218 214 214 216 216 215 216 217 221 226 228 229 227 223 225 228 229 224 218 222 229 239 251 254 256 239 223 220 223 223 222 222 223 221 217 219 224 222 218 217 219 220 222 235 233 213 215 224 225 226 226 224 221 217 209 200 197 201
234 234 229 221 212 202 192 191 194 193 191 197 208 208 205 209 211 209 208 206 207 205 202 203 204 205 206 208 211 216 216 210 212 216 216 215 214 217 220 225 229 229 225 222 224 229 231 225 217 220 232 244 251 255 256 239 222 219 223 223 220 221 223 220 216 217 220 217 215 214 215 216 220 231 226 212 223 229 227 228 229 228 225 220 215 209 205 205
234 233 231 225 217 209 195 187 191 193 191 194 204 208 207 208 210 210 208 206 207 205 202 202 203 205 206 209 213 214 210 207 211 216 217 216 214 216 220 223 227 227 223 222 225 230 229 222 217 222 232 241 249 254 254 241 224 220 224 224 220 224 223 218 215 214 217 216 213 213 217 219 222 227 220 216 230 234 235 235 232 232 229 225 220 216 213 211
233 230 230 228 221 214 203 188 186 189 190 195 205 210 207 207 210 210 207 204 205 204 201 202 203 204 206 210 214 212 207 206 209 213 216 217 214 213 216 220 223 222 219 222 226 228 224 217 215 222 231 240 249 253 252 243 224 218 226 227 222 227 226 217 215 215 215 217 213 215 224 225 225 225 219 223 232 233 235 236 236 234 233 230 225 221 218 217
230 230 229 229 225 219 212 192 185 190 189 189 199 209 209 207 209 210 208 204 203 203 200 201 203 203 205 210 211 207 205 204 205 209 212 213 211 207 208 212 215 216 216 219 222 221 217 213 216 223 231 241 248 251 251 247 226 219 226 229 224 231 231 218 215 218 218 221 217 218 230 230 227 227 224 227 230 233 235 236 238 239 236 235 230 227 224 223
226 230 228 229 229 224 218 199 190 199 198 185 187 200 209 208 207 209 207 204 203 202 200 200 202 201 205 210 208 204 204 202 202 206 207 209 209 203 202 204 207 210 213 216 218 218 215 213 219 228 229 236 245 249 250 249 235 223 226 230 228 234 235 221 217 220 222 226 221 221 232 232 228 226 226 229 230 232 236 236 239 240 238 238 235 232 229 229
220 228 228 229 230 227 222 208 195 198 198 189 183 190 206 208 208 210 205 202 202 200 201 200 199 199 202 207 206 203 204 201 200 204 205 207 210 207 203 201 203 206 209 213 216 217 216 214 218 225 227 233 237 240 243 243 239 228 225 227 229 235 235 227 222 221 224 228 224 223 232 232 225 222 226 229 231 233 234 235 236 237 237 239 238 236 234 233
216 222 226 228 230 228 225 214 203 196 193 195 187 185 201 207 206 207 203 199 200 200 200 198 197 198 200 205 203 202 203 200 197 199 200 202 205 207 205 200 201 203 205 209 212 215 215 213 215 220 224 230 231 231 237 240 237 229 224 222 225 234 237 233 227 221 223 228 225 223 229 231 223 219 225 228 232 236 235 235 236 236 234 235 236 237 236 235
211 217 222 227 230 229 226 219 211 200 195 199 192 181 192 204 204 202 198 195 197 199 200 199 196 196 201 205 204 203 202 198 195 194 192 193 195 197 200 200 200 200 202 204 207 210 211 210 212 216 221 226 228 227 229 230 227 222 220 218 220 233 237 235 229 221 221 225 226 225 228 229 223 217 224 230 234 237 235 235 238 238 236 234 233 233 233 234
206 212 218 225 230 229 227 223 217 209 202 196 191 184 182 198 203 197 191 190 192 195 197 198 194 194 203 207 206 203 200 196 193 190 185 186 188 185 189 198 202 202 201 202 203 205 206 208 211 215 221 223 223 223 223 225 223 218 215 215 221 233 236 235 230 222 220 223 227 229 229 228 224 218 222 230 235 239 238 237 239 239 237 236 233 232 230 231
203 208 215 221 229 229 226 225 220 216 209 197 193 192 184 193 201 197 192 187 186 188 191 195 194 197 205 208 205 202 198 195 192 190 187 187 186 180 180 187 198 203 203 202 202 204 205 206 208 212 218 220 221 222 225 230 229 223 218 216 223 233 236 236 232 225 221 224 228 231 232 231 227 220 222 232 238 243 243 239 238 239 239 239 236 234 230 230
202 205 213 217 225 229 225 225 223 219 214 205 198 194 193 201 197 192 194 189 187 191 194 197 197 200 206 205 202 198 194 194 193 191 190 190 189 186 183 184 191 198 205 206 204 205 206 209 212 215 218 222 225 223 224 232 232 229 223 217 224 232 233 234 232 228 223 226 231 233 236 236 232 225 224 234 240 244 246 241 237 237 240 243 241 240 236 233
203 204 210 213 222 227 224 224 225 223 218 212 206 198 201 206 194 189 193 189 188 195 197 198 198 201 204 204 202 198 191 191 193 193 193 193 193 192 191 192 193 192 198 206 207 208 209 213 218 221 224 226 226 223 223 230 232 232 227 219 223 232 230 228 227 226 226 230 234 235 239 239 236 230 227 234 240 243 245 240 236 236 238 242 243 245 244 241
203 205 208 211 217 223 225 223 223 224 220 216 215 206 197 194 191 192 194 187 186 193 197 198 199 202 203 203 203 200 195 191 190 192 195 197 198 199 199 199 201 199 195 197 203 207 210 214 218 221 227 227 225 225 224 228 229 230 228 222 222 228 228 227 226 226 226 232 236 238 242 241 240 237 233 236 240 241 243 241 236 236 238 238 240 244 247 247
205 205 206 209 213 220 225 222 221 223 221 219 217 208 194 185 189 193 194 187 185 190 196 198 199 201 202 201 200 199 200 196 192 193 195 199 202 204 206 205 206 206 203 199 199 204 210 217 221 221 225 224 222 224 223 224 226 227 227 223 221 222 223 224 227 232 231 236 240 242 246 244 240 241 237 238 242 240 240 242 241 240 240 237 239 242 243 243
208 206 207 208 210 216 220 221 222 223 222 220 216 208 201 189 187 192 194 189 185 189 195 199 199 201 201 200 197 195 199 199 197 195 194 198 202 204 209 211 210 209 211 210 205 208 216 222 224 222 222 222 222 224 224 222 222 225 226 223 220 217 214 218 225 237 242 244 244 247 256 250 242 242 241 238 242 242 239 240 241 241 240 238 240 242 240 237
212 208 208 207 205 207 211 217 220 223 224 220 218 214 210 194 178 185 193 190 188 190 194 199 200 202 203 201 199 195 197 199 198 198 197 198 201 202 205 209 211 211 212 213 209 212 219 222 223 222 221 222 223 226 227 224 222 225 227 223 219 214 211 217 230 252 259 255 251 251 263 256 245 244 245 241 240 242 241 241 241 241 242 241 242 242 240 237
216 212 210 207 203 201 205 213 216 220 223 221 220 215 210 199 170 173 189 190 191 192 193 198 199 201 203 203 200 194 195 201 199 199 201 199 201 204 202 203 207 210 212 210 210 214 218 220 223 224 223 222 223 226 226 225 223 225 228 223 215 213 217 225 243 264 267 260 259 251 252 262 255 248 248 247 245 243 244 243 242 242 244 245 244 243 242 240
220 215 212 208 204 201 206 214 214 215 220 221 219 214 214 208 173 169 190 194 195 194 191 194 197 199 202 202 200 193 193 199 197 199 203 200 201 205 205 203 202 204 209 206 205 214 217 218 222 222 223 223 222 223 223 220 219 223 227 221 210 212 221 238 255 256 262 268 265 256 252 260 262 254 248 248 248 246 247 247 247 245 245 246 246 244 244 244
224 219 214 210 206 204 210 215 213 214 219 219 217 217 218 210 179 179 203 211 187 190 190 191 193 197 199 199 200 197 195 197 195 195 201 201 199 200 203 207 204 201 206 206 205 213 217 219 222 220 218 220 222 223 222 219 217 219 224 218 206 209 220 235 250 244 257 279 265 252 251 254 261 259 254 251 250 248 247 249 251 249 247 247 246 246 247 246
227 222 218 212 207 206 208 211 213 215 217 215 214 217 217 211 200 203 220 228 171 183 189 189 188 193 196 195 197 200 198 196 196 195 196 199 199 196 198 204 205 200 203 211 212 214 220 220 225 225 221 222 223 222 221 219 215 214 217 211 202 206 223 236 244 242 248 269 256 246 244 250 264 265 260 256 254 250 248 250 253 252 249 249 248 248 249 248
228 222 220 214 208 208 207 208 215 215 212 210 209 214 220 217 209 209 225 207 170 174 184 187 185 189 192 192 193 198 198 195 197 194 190 195 197 196 195 196 199 196 197 207 211 214 219 213 215 223 224 227 228 222 218 217 215 211 202 196 201 213 236 244 239 239 240 253 253 246 243 248 266 269 263 259 259 257 252 250 251 248 244 245 247 248 250 250
233 222 219 216 211 208 208 211 214 211 207 206 205 211 220 212 203 207 224 186 173 168 177 183 184 187 190 191 192 195 198 197 198 192 185 187 191 190 188 185 187 190 197 202 202 207 212 205 206 212 213 212 215 216 212 209 210 207 195 190 201 220 240 244 238 229 224 250 260 248 244 247 247 255 262 263 264 263 258 254 252 249 243 241 244 245 248 250
240 226 218 217 213 208 210 213 210 208 205 199 202 213 213 201 201 215 187 176 177 170 175 181 184 186 189 191 192 193 194 194 197 195 189 185 187 188 186 185 183 180 192 200 197 202 207 207 207 208 208 202 197 202 201 201 201 197 192 192 194 184 204 229 234 225 235 254 272 240 236 244 247 248 250 254 257 254 253 255 252 250 247 244 245 245 244 244
243 231 219 216 214 209 211 211 203 205 204 196 201 211 205 195 204 214 192 177 177 173 177 183 187 188 188 187 189 191 192 192 192 194 193 188 186 187 188 190 187 183 191 195 191 195 203 213 214 208 209 205 199 198 193 191 192 190 188 189 187 163 157 215 214 244 258 252 248 244 240 248 254 257 255 252 254 253 251 254 252 252 248 244 244 245 243 240
245 235 221 216 215 211 210 207 200 202 203 200 208 211 203 195 201 202 195 180 173 174 177 183 183 183 184 183 186 190 189 189 191 191 190 188 184 185 188 191 191 194 195 189 189 192 191 206 214 208 206 202 202 205 196 188 186 188 189 189 193 193 186 195 194 212 246 244 232 226 234 248 248 256 261 254 252 253 255 253 249 251 251 245 242 242 243 242
246 237 224 216 214 211 207 204 200 200 202 204 209 206 199 198 192 192 191 178 172 173 174 178 176 172 176 182 187 191 188 185 188 188 187 189 189 188 191 191 193 197 196 186 189 193 191 198 210 206 206 203 201 202 195 189 187 188 191 196 205 206 205 209 216 225 232 248 234 218 226 243 243 244 242 230 241 253 260 256 246 244 246 244 242 240 242 243
246 238 227 218 214 210 205 202 199 200 204 207 207 200 195 198 197 193 191 180 175 174 167 168 172 167 167 176 181 187 191 188 184 183 185 192 196 194 194 194 194 198 200 193 188 190 194 201 205 203 203 201 198 195 190 191 193 191 196 206 210 208 213 224 230 228 223 238 243 231 238 248 255 259 245 226 238 251 254 252 245 240 242 242 240 238 239 241
246 238 230 221 215 209 202 201 199 199 206 210 210 206 198 198 199 196 192 185 181 178 169 164 170 170 166 171 177 183 190 188 182 182 184 189 198 200 197 197 197 199 203 201 195 193 193 193 191 195 196 194 192 190 192 197 197 196 201 207 207 207 217 224 226 204 200 238 249 235 244 253 255 257 255 246 248 248 243 245 251 252 249 248 246 242 242 244
247 241 234 222 215 207 200 200 200 199 206 211 212 210 203 200 201 197 192 186 181 179 173 166 170 176 175 175 181 185 188 185 181 184 186 188 198 204 201 200 201 201 204 204 202 201 195 184 181 193 194 193 192 191 197 202 204 205 205 203 202 204 209 211 213 201 196 236 271 244 250 257 249 244 250 258 246 237 234 238 249 256 255 254 252 246 244 245
248 245 237 223 214 206 199 199 200 200 206 211 211 210 203 201 201 200 196 190 184 180 177 173 173 179 182 183 184 186 186 186 183 184 189 192 199 205 203 202 201 201 204 205 204 205 200 187 174 187 191 192 194 197 201 204 205 209 212 208 208 212 210 209 213 217 204 206 259 266 262 257 253 251 253 253 237 225 236 247 255 257 255 255 252 248 248 248
246 243 236 223 212 203 197 197 200 202 206 209 210 209 204 201 202 203 202 198 191 185 183 183 179 179 184 186 186 185 185 188 188 187 192 196 198 202 202 202 201 200 203 205 204 204 203 198 182 178 186 192 197 202 205 205 204 206 210 209 210 212 212 215 221 225 226 206 206 257 271 260 259 260 259 256 248 246 257 269 266 257 253 253 249 247 250 253
238 235 232 221 209 199 195 197 200 203 207 208 209 208 204 201 202 202 204 205 202 194 190 191 188 185 186 186 186 186 184 188 192 191 195 198 199 200 201 202 203 201 199 200 203 202 201 200 184 174 182 192 200 206 209 209 209 209 210 211 211 209 207 209 223 227 227 232 235 224 279 269 264 262 267 268 259 250 254 263 266 261 253 249 248 251 253 255
225 224 224 215 202 195 194 197 199 202 205 207 206 205 203 201 199 197 197 200 202 197 192 192 192 189 187 188 189 188 186 190 194 195 199 202 203 204 201 201 204 204 200 198 200 201 198 195 185 180 189 194 201 208 209 212 215 216 217 218 218 214 212 212 217 226 224 236 248 254 280 272 268 265 268 269 252 241 249 264 275 275 261 255 259 263 262 259
213 214 216 210 199 194 194 195 198 201 205 206 206 204 203 203 198 193 189 190 194 193 189 190 191 190 189 191 190 188 187 190 194 198 202 203 205 206 203 201 203 203 201 199 197 196 196 193 182 173 185 195 202 210 211 212 216 218 220 221 220 219 219 220 225 235 234 235 241 244 265 267 270 270 265 257 247 247 257 271 278 272 265 274 282 270 257 248
209 209 211 207 199 195 194 193 195 198 202 204 205 201 201 203 201 194 188 187 191 193 190 190 193 195 196 196 196 195 194 193 195 200 204 205 204 205 204 203 203 202 203 203 199 195 192 188 177 156 143 190 204 213 215 214 215 217 219 219 220 221 221 221 226 233 245 245 238 233 252 259 266 273 270 267 264 261 261 266 268 267 270 287 294 270 243 236
205 204 204 202 198 196 195 194 194 196 198 201 201 197 195 198 201 199 196 193 195 196 194 194 197 199 199 198 199 199 199 198 196 198 204 207 206 205 205 206 206 205 206 206 203 197 189 186 185 174 155 176 197 209 214 211 209 213 218 218 220 221 219 220 221 221 236 242 232 227 244 254 260 267 267 268 272 267 256 252 257 267 276 285 285 262 240 239
197 191 188 191 195 195 195 195 194 195 197 198 198 196 193 191 194 199 200 196 194 194 194 195 196 195 196 196 194 194 197 201 203 201 201 204 206 206 207 208 208 207 206 204 204 200 191 192 199 196 194 199 203 207 212 209 204 209 215 217 219 220 221 222 220 221 230 235 231 233 241 249 254 256 253 255 264 259 243 244 258 272 279 283 279 259 243 243
193 186 180 181 186 190 192 194 194 195 197 197 196 196 194 191 189 192 196 195 191 190 192 195 194 193 194 194 192 193 196 199 205 208 206 205 205 205 205 206 205 206 205 203 204 201 193 198 207 208 210 215 213 212 217 214 210 213 215 215 217 219 221 221 222 227 231 232 238 242 244 247 250 250 249 254 257 251 245 252 266 275 277 280 280 267 251 248
189 186 185 182 182 186 190 191 192 195 197 196 194 195 196 194 190 186 190 194 193 191 191 194 198 201 202 200 197 195 193 195 201 207 206 205 204 201 199 200 200 203 205 205 207 205 201 205 212 213 216 221 221 222 226 223 221 221 219 218 219 219 220 222 226 231 232 231 241 247 248 250 252 254 255 257 257 254 254 260 268 273 274 273 274 270 261 261
185 183 184 185 186 187 188 191 191 194 199 197 191 191 193 194 192 189 190 190 189 192 196 196 199 204 208 208 204 197 194 195 199 202 204 205 204 200 196 196 197 198 202 205 207 206 205 209 214 214 216 220 222 227 231 230 228 225 223 225 225 224 225 228 231 234 234 237 243 247 250 253 254 256 258 261 261 258 260 263 265 268 269 267 266 266 264 267
183 181 180 181 186 188 187 190 192 193 198 199 192 189 191 192 192 191 192 191 189 191 199 202 204 205 207 209 208 206 207 208 207 206 205 203 201 199 196 196 196 193 195 201 202 202 204 209 213 213 213 217 220 223 227 229 228 227 227 228 229 230 232 233 235 236 235 240 245 247 250 254 253 256 261 264 265 263 264 266 266 265 266 266 266 268 269 272
185 184 183 179 182 188 186 188 192 192 195 199 196 189 188 190 192 191 193 197 197 194 197 203 206 205 206 208 211 214 218 219 217 215 212 207 204 201 198 198 198 192 189 194 199 202 203 205 211 212 210 216 221 220 221 223 224 227 228 229 230 231 233 235 237 238 238 242 246 246 249 254 257 262 266 266 265 265 266 267 268 269 270 272 274 275 276 276
187 185 186 182 182 187 187 187 191 191 192 197 198 195 192 192 193 193 192 195 201 202 200 202 205 204 202 206 213 218 220 218 216 217 215 212 211 209 207 206 205 198 192 191 195 201 204 204 207 207 206 214 219 219 218 215 212 224 230 233 233 233 234 238 240 241 242 244 246 247 252 259 266 269 269 268 267 267 268 269 273 275 276 276 275 274 273 273
Height
3007 3011 3017 3023 3028 3032 3037 3042 3046 3051 3055 3060 3064 3068 3072 3075 3079 3083 3088 3091 3095 3098 3102 3105 3108 3110 3113 3116 3118 3119 3121 3123 3125 3126 3129 3133 3134 3136 3139 3142 3145 3147 3149 3151 3154 3156 3157 3158 3161 3164 3167 3169 3171 3173 3175 3176 3176 3176 3177 3178 3180 3181 3183 3184 3185 3186 3187 3187 3187 3187 3188 3188 3188 3189 3189 3190 3191 3191 3192 3193 3194 3195 3196 3197 3198 3198 3199 3199
3004 3008 3013 3019 3025 3029 3033 3039 3043 3048 3052 3057 3061 3065 3069 3073 3077 3081 3085 3089 3093 3097 3100 3103 3106 3109 3112 3114 3116 3118 3120 3121 3123 3124 3128 3132 3133 3135 3137 3140 3143 3145 3147 3150 3153 3155 3156 3157 3160 3163 3166 3168 3169 3172 3174 3175 3175 3175 3176 3177 3179 3181 3182 3184 3185 3185 3186 3186 3186 3187 3187 3187 3188 3188 3189 3189 3190 3191 3192 3193 3193 3194 3195 3197 3198 3199 3199 3199
3001 3005 3009 3015 3021 3026 3031 3036 3041 3045 3050 3054 3058 3062 3066 3070 3074 3078 3082 3086 3091 3094 3098 3101 3104 3107 3110 3112 3115 3117 3118 3119 3119 3122 3127 3129 3131 3134 3137 3139 3141 3143 3146 3149 3151 3154 3156 3157 3159 3162 3165 3166 3168 3170 3172 3174 3174 3174 3175 3176 3178 3180 3181 3183 3184 3184 3185 3185 3186 3186 3186 3187 3187 3187 3188 3189 3190 3191 3191 3193 3194 3194 3196 3197 3198 3199 3199 3199
2998 3003 3006 3012 3018 3023 3028 3032 3037 3042 3047 3051 3056 3060 3064 3068 3072 3075 3079 3083 3088 3092 3095 3099 3102 3105 3108 3111 3113 3115 3116 3117 3116 3120 3126 3127 3130 3133 3136 3138 3140 3142 3145 3148 3150 3152 3155 3156 3158 3160 3163 3165 3167 3169 3170 3171 3172 3173 3174 3175 3177 3178 3179 3181 3182 3183 3184 3184 3185 3185 3186 3186 3186 3187 3187 3188 3189 3190 3191 3192 3194 3194 3195 3196 3198 3199 3200 3200
2995 3000 3003 3008 3014 3020 3025 3029 3034 3039 3044 3048 3053 3057 3062 3065 3069 3073 3077 3081 3085 3089 3093 3097 3100 3103 3106 3109 3111 3112 3114 3113 3113 3120 3123 3125 3129 3131 3134 3136 3138 3141 3144 3146 3149 3151 3153 3155 3157 3159 3161 3163 3165 3167 3168 3169 3171 3172 3174 3174 3176 3177 3178 3179 3180 3181 3182 3183 3183 3184 3185 3186 3186 3186 3187 3188 3189 3190 3191 3192 3193 3193 3194 3195 3196 3198 3199 3200
2991 2997 3000 3004 3011 3017 3021 3027 3032 3036 3041 3046 3050 3055 3059 3063 3067 3070 3074 3078 3082 3087 3091 3094 3098 3101 3104 3107 3109 3110 3110 3110 3113 3119 3121 3124 3127 3129 3132 3134 3136 3140 3142 3145 3147 3149 3151 3153 3155 3157 3159 3161 3163 3164 3166 3168 3170 3171 3173 3173 3174 3174 3176 3177 3178 3179 3180 3181 3182 3183 3184 3185 3185 3185 3186 3187 3189 3190 3190 3191 3191 3192 3193 3194 3195 3197 3199 3200
2986 2992 2997 3001 3007 3013 3018 3024 3029 3033 3038 3043 3048 3052 3056 3060 3064 3068 3072 3076 3080 3084 3088 3092 3096 3099 3102 3104 3106 3107 3107 3109 3114 3117 3119 3122 3125 3128 3130 3132 3135 3138 3141 3143 3146 3148 3150 3152 3154 3156 3158 3159 3161 3163 3164 3166 3168 3169 3171 3172 3172 3173 3174 3176 3176 3177 3178 3180 3181 3181 3182 3183 3184 3185 3185 3186 3188 3189 3189 3190 3191 3192 3193 3194 3195 3196 3198 3199
2983 2988 2994 3000 3004 3009 3015 3020 3024 3030 3035 3041 3045 3049 3054 3058 3061 3066 3070 3074 3078 3082 3086 3090 3093 3096 3099 3101 3103 3103 3103 3108 3113 3115 3118 3120 3123 3125 3128 3130 3133 3137 3140 3142 3145 3147 3149 3151 3153 3155 3157 3158 3159 3161 3162 3165 3167 3168 3168 3169 3170 3172 3173 3175 3176 3177 3178 3178 3179 3180 3181 3182 3183 3184 3184 3186 3187 3188 3188 3189 3190 3191 3192 3193 3194 3195 3197 3199
2980 2984 2990 2997 3002 3006 3011 3017 3022 3027 3033 3039 3043 3047 3052 3055 3059 3063 3068 3072 3076 3079 3083 3087 3090 3094 3097 3099 3100 3100 3102 3108 3112 3114 3116 3118 3121 3124 3126 3130 3133 3136 3139 3141 3144 3145 3147 3150 3152 3154 3156 3157 3158 3159 3160 3163 3164 3165 3166 3167 3169 3171 3172 3173 3175 3176 3177 3178 3178 3179 3180 3181 3182 3183 3183 3185 3186 3186 3188 3189 3189 3190 3191 3193 3194 3195 3196 3197
2977 2980 2986 2993 2999 3004 3007 3014 3021 3025 3031 3038 3042 3045 3049 3053 3058 3062 3066 3070 3074 3077 3081 3084 3088 3091 3093 3095 3096 3097 3102 3109 3111 3112 3114 3116 3119 3122 3125 3129 3132 3135 3138 3140 3142 3144 3147 3150 3152 3154 3155 3155 3156 3157 3158 3160 3161 3163 3164 3165 3168 3169 3170 3172 3174 3175 3176 3176 3177 3178 3179 3180 3181 3181 3182 3184 3185 3185 3187 3188 3188 3190 3191 3192 3192 3193 3195 3196
2974 2978 2983 2989 2996 3001 3005 3010 3017 3024 3030 3036 3040 3044 3047 3051 3056 3060 3064 3068 3072 3075 3079 3082 3085 3088 3090 3092 3093 3096 3103 3108 3109 3111 3113 3115 3118 3121 3125 3128 3130 3133 3135 3138 3140 3143 3146 3149 3151 3152 3153 3154 3154 3156 3156 3157 3159 3161 3163 3164 3166 3168 3169 3170 3172 3174 3175 3175 3176 3177 3177 3178 3179 3179 3181 3183 3183 3184 3186 3186 3187 3189 3190 3191 3191 3192 3193 3194
2973 2975 2979 2985 2992 2997 3002 3007 3013 3020 3027 3034 3039 3042 3045 3049 3053 3058 3062 3066 3070 3073 3077 3080 3083 3086 3089 3090 3092 3098 3104 3106 3108 3110 3112 3114 3117 3120 3123 3126 3128 3130 3133 3136 3139 3142 3145 3147 3149 3151 3152 3153 3154 3154 3154 3155 3158 3160 3161 3163 3165 3166 3167 3169 3171 3172 3173 3174 3175 3176 3175 3176 3176 3178 3181 3182 3182 3183 3184 3185 3186 3187 3189 3189 3190 3190 3191 3193
2970 2973 2976 2981 2987 2993 2999 3004 3009 3014 3019 3026 3034 3039 3043 3047 3052 3056 3060 3064 3068 3071 3075 3078 3081 3085 3087 3087 3091 3098 3101 3103 3106 3108 3110 3112 3114 3117 3120 3123 3126 3128 3131 3135 3137 3140 3143 3145 3148 3149 3151 3152 3152 3153 3153 3155 3157 3158 3160 3162 3164 3165 3165 3167 3169 3170 3172 3172 3173 3174 3173 3173 3175 3178 3180 3180 3181 3182 3182 3183 3184 3186 3187 3188 3188 3189 3190 3191
2968 2971 2974 2978 2983 2989 2996 3001 3004 3008 3013 3018 3026 3035 3041 3045 3049 3054 3058 3063 3066 3070 3073 3077 3080 3083 3085 3085 3090 3096 3097 3101 3104 3105 3108 3110 3112 3115 3117 3120 3124 3126 3130 3133 3135 3138 3141 3143 3146 3147 3149 3150 3151 3152 3153 3154 3155 3157 3159 3160 3162 3163 3163 3165 3168 3169 3171 3171 3172 3172 3171 3171 3175 3178 3179 3179 3179 3180 3181 3182 3183 3184 3185 3186 3187 3187 3188 3189
2965 2968 2972 2976 2980 2985 2992 2999 3002 3005 3010 3015 3021 3030 3038 3042 3047 3052 3056 3060 3064 3068 3071 3075 3078 3080 3082 3084 3089 3093 3094 3097 3100 3103 3107 3109 3111 3113 3115 3118 3121 3124 3128 3130 3133 3136 3139 3142 3143 3145 3146 3148 3150 3150 3151 3153 3154 3156 3157 3158 3160 3160 3161 3164 3166 3167 3169 3169 3170 3171 3169 3170 3174 3176 3177 3177 3178 3178 3179 3180 3181 3182 3183 3184 3185 3186 3186 3187
2963 2967 2971 2974 2978 2982 2989 2995 3000 3003 3007 3013 3019 3025 3033 3039 3044 3049 3053 3057 3062 3065 3068 3072 3074 3077 3079 3081 3085 3088 3090 3093 3097 3101 3104 3106 3109 3112 3114 3117 3119 3122 3125 3129 3132 3134 3137 3139 3141 3142 3144 3146 3147 3149 3151 3152 3152 3153 3154 3155 3158 3159 3161 3163 3164 3165 3167 3168 3168 3168 3168 3169 3172 3174 3175 3176 3176 3177 3177 3178 3179 3180 3181 3182 3183 3184 3184 3185
2962 2966 2970 2973 2976 2980 2985 2992 2997 3001 3004 3010 3017 3021 3028 3036 3041 3046 3051 3054 3058 3062 3066 3069 3072 3077 3078 3078 3081 3083 3086 3090 3095 3098 3101 3104 3107 3110 3113 3115 3117 3120 3124 3127 3130 3132 3134 3136 3137 3139 3141 3143 3145 3148 3149 3148 3149 3151 3152 3154 3156 3158 3160 3161 3162 3164 3165 3166 3166 3167 3167 3167 3170 3172 3174 3174 3175 3175 3176 3177 3178 3179 3180 3180 3181 3182 3182 3183
2961 2964 2968 2971 2974 2977 2982 2989 2994 2999 3003 3008 3015 3019 3025 3033 3039 3042 3044 3048 3054 3060 3064 3067 3071 3074 3072 3071 3074 3079 3084 3089 3093 3096 3100 3102 3104 3108 3111 3114 3117 3119 3122 3124 3126 3129 3131 3133 3135 3137 3138 3140 3142 3145 3146 3145 3147 3149 3151 3153 3156 3158 3158 3159 3161 3162 3163 3164 3165 3165 3165 3166 3168 3171 3172 3173 3173 3173 3174 3176 3176 3177 3178 3178 3179 3180 3181 3181
2959 2962 2966 2969 2971 2974 2979 2986 2991 2996 3003 3007 3013 3018 3022 3029 3036 3037 3036 3037 3042 3047 3050 3054 3058 3059 3059 3063 3070 3078 3085 3088 3091 3095 3097 3099 3102 3105 3109 3112 3115 3117 3119 3121 3123 3125 3128 3130 3132 3133 3133 3136 3139 3141 3143 3144 3146 3149 3151 3153 3155 3156 3157 3158 3160 3162 3162 3163 3163 3163 3163 3164 3167 3169 3170 3171 3171 3172 3173 3174 3175 3175 3176 3177 3177 3178 3179 3180
2957 2961 2964 2967 2969 2972 2977 2983 2988 2993 3000 3006 3010 3014 3016 3021 3027 3028 3029 3032 3034 3037 3040 3043 3048 3051 3054 3061 3068 3075 3081 3085 3088 3091 3093 3096 3099 3102 3105 3108 3111 3114 3116 3118 3121 3124 3127 3128 3127 3128 3130 3134 3138 3141 3143 3144 3147 3149 3151 3152 3154 3154 3155 3157 3159 3160 3161 3161 3161 3162 3163 3163 3165 3167 3169 3169 3169 3170 3171 3172 3173 3174 3174 3175 3176 3177 3178 3179
2956 2959 2961 2965 2967 2970 2975 2980 2985 2990 2997 3003 3007 3008 3009 3015 3019 3018 3023 3030 3036 3040 3042 3045 3049 3051 3054 3061 3066 3070 3074 3078 3083 3088 3091 3094 3097 3100 3103 3105 3107 3110 3113 3117 3120 3123 3124 3124 3124 3127 3131 3134 3138 3140 3142 3143 3146 3148 3149 3151 3152 3153 3154 3156 3157 3158 3160 3159 3159 3161 3161 3160 3162 3165 3166 3166 3167 3168 3169 3171 3171 3172 3173 3173 3174 3175 3176 3177
2954 2957 2960 2963 2966 2969 2973 2977 2981 2986 2993 2998 3001 3003 3005 3010 3014 3016 3019 3024 3031 3037 3040 3044 3048 3050 3055 3061 3065 3070 3073 3075 3081 3086 3089 3091 3094 3097 3100 3102 3105 3107 3111 3115 3117 3120 3121 3120 3124 3128 3131 3134 3137 3138 3140 3143 3145 3147 3148 3149 3150 3151 3153 3156 3156 3157 3158 3158 3158 3159 3158 3158 3160 3162 3163 3163 3164 3166 3168 3168 3169 3170 3170 3171 3172 3173 3174 3175
2952 2955 2958 2961 2964 2967 2971 2975 2979 2982 2987 2992 2996 3000 3003 3007 3012 3017 3022 3023 3026 3031 3036 3040 3043 3047 3051 3056 3061 3068 3072 3074 3078 3082 3085 3088 3091 3095 3097 3100 3103 3106 3109 3111 3113 3116 3117 3119 3124 3128 3130 3132 3134 3136 3138 3140 3142 3143 3145 3146 3148 3151 3154 3155 3156 3157 3157 3157 3157 3157 3156 3156 3157 3158 3159 3160 3161 3163 3165 3165 3166 3167 3167 3169 3170 3170 3171 3172
2950 2954 2957 2959 2963 2965 2968 2972 2975 2978 2983 2989 2993 2999 3003 3007 3012 3019 3023 3025 3025 3028 3033 3037 3041 3045 3048 3053 3058 3063 3068 3073 3076 3079 3081 3084 3088 3092 3096 3099 3102 3105 3108 3110 3113 3115 3116 3120 3124 3126 3127 3129 3131 3133 3135 3137 3138 3140 3142 3144 3147 3152 3154 3154 3156 3156 3156 3156 3155 3156 3155 3152 3153 3154 3154 3158 3159 3159 3162 3162 3162 3163 3165 3166 3166 3167 3169 3170
2948 2952 2955 2957 2960 2963 2966 2969 2971 2975 2982 2986 2990 2997 3003 3005 3010 3019 3022 3022 3023 3025 3029 3034 3039 3043 3048 3054 3058 3061 3066 3070 3074 3077 3080 3082 3086 3089 3093 3097 3101 3103 3106 3109 3113 3114 3116 3119 3122 3123 3125 3127 3129 3130 3132 3134 3137 3139 3140 3142 3147 3152 3154 3154 3154 3154 3154 3153 3153 3157 3154 3147 3148 3151 3151 3155 3156 3156 3158 3159 3159 3161 3162 3163 3163 3165 3166 3167
2946 2949 2952 2955 2958 2961 2963 2965 2969 2975 2978 2981 2988 2996 3003 3005 3007 3015 3019 3018 3017 3017 3020 3028 3034 3039 3045 3051 3056 3061 3066 3068 3072 3077 3079 3082 3085 3087 3091 3095 3098 3101 3105 3109 3112 3113 3115 3118 3119 3121 3123 3125 3127 3128 3130 3133 3136 3137 3138 3142 3148 3152 3153 3153 3154 3154 3153 3151 3152 3155 3152 3145 3145 3148 3149 3151 3152 3152 3155 3155 3156 3158 3159 3160 3161 3163 3164 3165
2944 2946 2950 2953 2956 2958 2959 2963 2969 2972 2974 2980 2989 2995 3001 3006 3006 3009 3016 3015 3009 3008 3014 3022 3028 3033 3039 3046 3052 3057 3059 3062 3069 3074 3076 3080 3083 3086 3089 3091 3094 3098 3102 3107 3109 3109 3111 3114 3116 3119 3122 3123 3123 3124 3128 3131 3134 3135 3136 3141 3147 3151 3153 3153 3154 3153 3151 3150 3150 3151 3151 3146 3141 3142 3145 3148 3148 3149 3151 3151 3153 3155 3156 3158 3159 3160 3161 3163
2942 2944 2947 2951 2954 2956 2958 2962 2966 2969 2974 2982 2990 2994 2998 3004 3006 3006 3010 3006 2999 3001 3009 3016 3023 3030 3036 3043 3049 3052 3053 3057 3063 3067 3072 3077 3079 3083 3087 3089 3092 3096 3100 3103 3104 3107 3110 3112 3114 3116 3118 3118 3118 3121 3126 3130 3132 3134 3136 3141 3146 3150 3152 3152 3153 3152 3151 3151 3147 3146 3149 3146 3137 3136 3142 3144 3144 3146 3147 3149 3151 3152 3154 3155 3156 3157 3159 3160
2940 2942 2945 2949 2953 2954 2956 2960 2963 2968 2975 2982 2987 2993 2995 3000 3004 3004 3002 2997 2992 2995 3003 3011 3019 3025 3032 3039 3045 3049 3052 3056 3059 3063 3069 3073 3076 3079 3082 3087 3092 3096 3100 3103 3104 3108 3110 3111 3113 3115 3114 3114 3116 3121 3125 3128 3130 3133 3137 3141 3145 3149 3150 3151 3152 3151 3153 3150 3142 3143 3148 3144 3134 3132 3138 3140 3140 3142 3145 3147 3149 3150 3152 3153 3154 3155 3156 3157
2938 2940 2943 2947 2949 2951 2953 2956 2961 2967 2974 2979 2985 2990 2992 2995 2999 2998 2994 2989 2987 2991 2999 3008 3014 3018 3026 3034 3040 3046 3050 3054 3057 3060 3065 3069 3074 3078 3082 3087 3093 3096 3099 3102 3106 3108 3109 3110 3112 3112 3113 3115 3118 3121 3123 3127 3130 3133 3137 3140 3145 3148 3149 3151 3150 3151 3153 3146 3138 3141 3146 3145 3136 3129 3132 3135 3136 3139 3143 3144 3146 3147 3149 3150 3151 3152 3152 3153
2934 2938 2941 2943 2946 2949 2951 2952 2959 2967 2972 2977 2983 2987 2988 2991 2992 2989 2986 2984 2986 2989 2994 3003 3010 3015 3021 3027 3034 3041 3047 3051 3054 3055 3059 3065 3070 3074 3078 3084 3090 3095 3098 3099 3101 3104 3105 3107 3107 3108 3111 3115 3117 3119 3122 3125 3128 3132 3136 3139 3143 3146 3148 3150 3150 3151 3149 3141 3138 3142 3145 3146 3136 3125 3128 3132 3133 3137 3139 3141 3143 3145 3147 3147 3148 3148 3149 3149
2930 2935 2937 2940 2943 2946 2947 2951 2960 2967 2970 2975 2980 2981 2982 2984 2983 2982 2982 2983 2985 2985 2986 2994 3003 3009 3017 3025 3032 3036 3041 3046 3050 3052 3055 3059 3063 3067 3071 3073 3077 3083 3088 3091 3096 3100 3102 3104 3105 3107 3109 3112 3114 3116 3120 3124 3126 3130 3133 3137 3141 3145 3149 3149 3148 3148 3145 3140 3140 3142 3143 3141 3128 3121 3127 3130 3132 3135 3136 3138 3140 3142 3143 3144 3145 3145 3145 3146
2925 2930 2934 2936 2939 2942 2944 2951 2960 2964 2968 2971 2974 2976 2976 2974 2972 2974 2980 2981 2980 2981 2984 2989 2997 3004 3012 3021 3027 3032 3038 3043 3046 3051 3055 3057 3060 3064 3069 3072 3074 3075 3077 3083 3092 3097 3101 3104 3104 3105 3106 3108 3109 3110 3113 3116 3120 3124 3127 3130 3134 3140 3145 3146 3146 3145 3142 3140 3140 3142 3143 3135 3122 3121 3126 3127 3130 3134 3134 3136 3138 3138 3140 3141 3142 3142 3142 3144
2919 2924 2929 2931 2934 2937 2942 2950 2956 2960 2965 2968 2970 2970 2968 2966 2964 2969 2976 2978 2978 2982 2985 2988 2995 3005 3012 3017 3023 3029 3035 3041 3044 3048 3052 3055 3059 3062 3066 3070 3074 3074 3075 3081 3087 3090 3094 3097 3097 3099 3101 3103 3105 3108 3109 3112 3116 3120 3123 3126 3127 3130 3134 3138 3140 3140 3139 3139 3140 3141 3139 3128 3120 3122 3124 3125 3129 3131 3131 3133 3134 3136 3137 3138 3138 3139 3140 3141
2912 2917 2923 2926 2927 2930 2938 2947 2953 2956 2960 2963 2965 2960 2957 2959 2961 2965 2971 2974 2977 2980 2985 2989 2995 3004 3012 3018 3023 3027 3030 3036 3041 3045 3048 3050 3053 3056 3059 3063 3068 3071 3073 3077 3082 3085 3089 3091 3091 3094 3098 3101 3104 3108 3111 3115 3118 3121 3124 3125 3124 3125 3130 3135 3137 3137 3138 3139 3137 3135 3130 3122 3120 3122 3123 3125 3127 3127 3129 3130 3130 3132 3133 3135 3135 3136 3137 3138
2906 2911 2915 2917 2919 2925 2935 2944 2948 2952 2955 2958 2958 2951 2948 2955 2958 2960 2966 2971 2973 2975 2982 2990 2995 3000 3008 3015 3021 3026 3030 3033 3038 3041 3045 3049 3052 3053 3056 3059 3063 3066 3068 3072 3077 3082 3087 3090 3091 3094 3098 3103 3105 3108 3112 3115 3117 3120 3121 3120 3121 3127 3132 3135 3135 3136 3138 3137 3131 3128 3124 3120 3121 3121 3121 3123 3124 3125 3128 3128 3128 3130 3130 3131 3132 3133 3135 3135
2900 2903 2905 2908 2913 2922 2932 2939 2944 2948 2951 2952 2951 2947 2948 2954 2956 2959 2963 2967 2971 2973 2976 2982 2987 2993 3001 3009 3016 3022 3027 3032 3036 3038 3041 3047 3049 3050 3054 3058 3060 3062 3065 3070 3074 3078 3082 3087 3091 3093 3096 3100 3104 3107 3111 3114 3115 3116 3116 3117 3122 3129 3131 3132 3134 3135 3136 3133 3126 3123 3122 3121 3122 3119 3118 3121 3122 3123 3127 3127 3127 3128 3128 3129 3129 3130 3131 3131
2896 2897 2895 2898 2909 2919 2928 2935 2939 2943 2947 2946 2946 2947 2949 2952 2955 2959 2962 2964 2968 2973 2975 2977 2981 2987 2992 2999 3008 3015 3020 3024 3029 3033 3037 3040 3041 3042 3047 3052 3056 3060 3063 3069 3074 3077 3080 3086 3090 3092 3094 3098 3102 3106 3109 3111 3113 3113 3114 3117 3121 3124 3125 3128 3130 3130 3131 3131 3124 3121 3120 3118 3117 3115 3116 3120 3120 3121 3124 3125 3126 3126 3126 3126 3126 3127 3127 3127
2891 2888 2881 2889 2906 2915 2923 2930 2935 2939 2940 2939 2940 2944 2946 2948 2953 2958 2960 2963 2967 2971 2975 2977 2980 2986 2990 2994 3000 3008 3014 3017 3021 3025 3030 3032 3033 3035 3041 3045 3050 3056 3061 3066 3072 3076 3079 3083 3088 3090 3093 3097 3100 3102 3103 3104 3108 3112 3115 3117 3118 3120 3122 3124 3126 3125 3127 3128 3124 3121 3118 3111 3108 3112 3116 3119 3120 3120 3122 3123 3124 3124 3124 3124 3124 3125 3124 3124
2885 2880 2872 2885 2902 2908 2919 2928 2930 2930 2930 2931 2936 2939 2941 2946 2951 2956 2958 2961 2965 2969 2974 2976 2978 2983 2989 2995 3000 3005 3011 3016 3018 3021 3024 3026 3029 3032 3038 3043 3047 3052 3059 3066 3070 3074 3077 3079 3083 3088 3091 3094 3096 3096 3097 3100 3104 3107 3109 3112 3114 3117 3120 3122 3123 3123 3123 3125 3123 3122 3115 3104 3104 3111 3114 3117 3120 3120 3121 3121 3122 3122 3122 3122 3122 3122 3122 3123
2880 2873 2865 2879 2895 2902 2913 2919 2918 2920 2924 2928 2932 2934 2938 2943 2948 2953 2957 2961 2964 2968 2972 2975 2977 2980 2984 2991 2998 3002 3009 3014 3017 3020 3022 3023 3025 3028 3033 3039 3044 3049 3055 3063 3067 3071 3074 3077 3080 3084 3087 3090 3092 3094 3098 3102 3104 3104 3106 3107 3109 3113 3116 3119 3120 3119 3121 3122 3121 3121 3112 3098 3102 3112 3113 3115 3119 3119 3120 3120 3119 3120 3120 3119 3119 3119 3120 3121
2871 2864 2860 2874 2887 2894 2902 2906 2909 2916 2919 2922 2926 2930 2936 2941 2945 2949 2954 2959 2964 2967 2971 2974 2977 2980 2983 2986 2992 2997 3002 3007 3012 3015 3017 3019 3021 3024 3029 3035 3041 3046 3052 3057 3063 3068 3072 3076 3080 3083 3086 3089 3092 3095 3098 3101 3103 3105 3106 3106 3109 3113 3114 3116 3117 3117 3121 3121 3119 3122 3112 3095 3097 3109 3113 3115 3117 3118 3119 3119 3119 3119 3118 3118 3118 3118 3118 3119
2860 2859 2862 2872 2880 2886 2894 2899 2905 2910 2912 2918 2926 2930 2934 2938 2942 2946 2949 2955 2959 2962 2968 2972 2975 2979 2983 2987 2991 2996 3000 3005 3009 3011 3014 3018 3021 3025 3029 3034 3040 3047 3051 3054 3059 3066 3070 3073 3077 3082 3087 3090 3092 3094 3097 3099 3100 3101 3101 3102 3107 3109 3111 3115 3117 3117 3120 3117 3117 3121 3111 3093 3094 3105 3110 3114 3115 3116 3118 3117 3118 3118 3117 3117 3117 3116 3117 3118
2856 2859 2862 2867 2874 2879 2882 2883 2891 2901 2908 2916 2923 2926 2930 2934 2938 2940 2944 2949 2953 2957 2964 2969 2972 2976 2980 2984 2988 2992 2996 3001 3007 3011 3013 3017 3021 3025 3030 3033 3038 3043 3047 3049 3053 3059 3064 3069 3073 3079 3087 3091 3094 3095 3094 3092 3093 3093 3095 3099 3103 3106 3110 3113 3114 3116 3116 3112 3115 3118 3104 3091 3095 3102 3106 3111 3112 3114 3116 3116 3116 3117 3115 3115 3115 3115 3116 3116
2851 2853 2855 2861 2866 2869 2871 2877 2887 2897 2905 2911 2917 2921 2925 2928 2933 2936 2939 2944 2949 2953 2958 2963 2968 2973 2977 2982 2986 2990 2993 2996 3001 3007 3011 3015 3020 3025 3029 3033 3037 3041 3044 3049 3053 3057 3060 3064 3066 3070 3076 3081 3083 3081 3076 3077 3083 3087 3091 3095 3097 3101 3105 3106 3110 3114 3109 3103 3107 3106 3092 3088 3096 3100 3103 3108 3110 3112 3114 3115 3115 3115 3114 3114 3114 3114 3114 3114
2835 2835 2842 2851 2858 2863 2872 2882 2888 2892 2898 2904 2912 2917 2919 2923 2930 2935 2938 2941 2946 2951 2955 2960 2966 2972 2976 2980 2985 2989 2993 2996 2999 3003 3007 3012 3017 3022 3027 3032 3037 3040 3044 3049 3054 3058 3060 3062 3063 3063 3064 3064 3064 3063 3064 3069 3077 3081 3084 3088 3093 3097 3100 3104 3108 3104 3097 3096 3097 3091 3086 3089 3094 3098 3102 3106 3109 3111 3112 3113 3113 3113 3113 3113 3112 3112 3112 3112
2823 2823 2826 2834 2845 2855 2867 2877 2883 2887 2893 2898 2903 2909 2914 2919 2925 2931 2936 2940 2944 2949 2954 2959 2963 2968 2972 2977 2981 2986 2991 2995 2998 3001 3005 3009 3015 3021 3027 3031 3035 3038 3043 3048 3052 3055 3058 3059 3060 3061 3061 3061 3062 3064 3067 3072 3075 3076 3080 3085 3089 3093 3097 3101 3100 3093 3093 3096 3090 3083 3088 3091 3091 3096 3101 3104 3108 3110 3110 3111 3111 3111 3111 3111 3111 3111 3110 3110
2813 2817 2822 2828 2835 2845 2855 2867 2877 2885 2891 2895 2897 2902 2908 2913 2916 2921 2929 2938 2944 2947 2952 2957 2961 2964 2967 2971 2975 2980 2986 2991 2994 2998 3002 3007 3012 3018 3024 3029 3033 3035 3039 3044 3047 3050 3053 3054 3054 3057 3060 3063 3066 3068 3069 3072 3075 3077 3081 3083 3086 3090 3093 3093 3090 3087 3091 3092 3083 3082 3089 3088 3088 3095 3099 3101 3106 3108 3108 3108 3108 3109 3110 3110 3109 3109 3108 3108
2805 2813 2823 2831 2836 2844 2855 2867 2877 2884 2890 2893 2895 2896 2900 2905 2910 2915 2922 2931 2939 2945 2948 2951 2956 2961 2966 2971 2974 2977 2980 2984 2987 2990 2993 2998 3004 3010 3015 3020 3025 3030 3034 3038 3041 3045 3048 3049 3051 3056 3059 3062 3065 3068 3069 3072 3075 3078 3080 3082 3085 3088 3088 3086 3083 3084 3089 3087 3081 3084 3087 3084 3087 3092 3095 3099 3103 3103 3104 3105 3105 3106 3107 3107 3107 3107 3107 3107
2800 2805 2815 2827 2837 2845 2856 2866 2874 2880 2888 2892 2893 2895 2899 2903 2908 2914 2919 2923 2928 2937 2943 2946 2950 2955 2961 2966 2970 2972 2973 2974 2975 2977 2981 2986 2992 2998 3003 3007 3012 3020 3028 3033 3037 3041 3045 3048 3050 3055 3058 3061 3064 3066 3068 3071 3074 3076 3079 3081 3083 3083 3082 3080 3079 3084 3088 3083 3081 3087 3085 3079 3083 3090 3092 3096 3098 3098 3100 3101 3101 3103 3104 3104 3105 3105 3105 3105
2803 2809 2815 2825 2837 2845 2852 2859 2867 2874 2881 2887 2889 2892 2898 2902 2906 2912 2918 2922 2924 2929 2933 2938 2944 2951 2958 2963 2965 2965 2967 2970 2973 2977 2980 2984 2988 2993 2997 3002 3008 3015 3023 3030 3035 3039 3043 3046 3049 3054 3058 3060 3062 3065 3068 3070 3073 3076 3077 3076 3075 3073 3073 3074 3078 3082 3082 3078 3082 3085 3077 3072 3080 3089 3090 3091 3093 3094 3095 3096 3098 3100 3101 3102 3102 3101 3101 3101
2804 2813 2820 2827 2835 2843 2849 2857 2864 2868 2873 2879 2886 2890 2895 2902 2907 2911 2916 2923 2928 2930 2931 2935 2941 2947 2953 2957 2958 2959 2964 2972 2978 2983 2987 2991 2995 2998 3002 3007 3012 3016 3020 3027 3033 3037 3041 3044 3046 3051 3055 3057 3060 3064 3066 3070 3073 3072 3068 3065 3065 3066 3069 3073 3075 3075 3075 3077 3079 3075 3069 3071 3081 3085 3084 3086 3089 3089 3090 3092 3095 3096 3097 3098 3097 3096 3097 3096